EW9499 Weather Reports


time (UTC)temp
C
wind
direction
speed
KPH
gust
KPH
rain 1hr
cm
rain 24hr
cm
rain mn
cm
humidity
%
barometer
mb
20260906212517 32 0.0 1.6 0.00 0.00 0.00 34 1019.6
20260906211518 32 0.0 1.6 0.00 0.00 0.00 35 1019.7
20260906210518 31 113 3.2 14.5 0.00 0.00 0.00 36 1019.8
20260906205518 31 0.0 1.6 0.00 0.00 0.00 36 1019.9
20260906204518 31 0.0 6.4 0.00 0.00 0.00 35 1020.5
20260906203537 32 113 1.6 11.3 0.00 0.00 0.00 36 1020.8
20260906202538 31 113 1.6 12.9 0.00 0.00 0.00 38 1021.0
20260906201517 32 0.0 3.2 0.00 0.00 0.00 36 1021.3
20260906200517 32 113 1.6 14.5 0.00 0.00 0.00 37 1021.5
20260906195517 32 135 9.7 16.1 0.00 0.00 0.00 38 1022.0
20260906194517 31 0.0 1.6 0.00 0.00 0.00 38 1022.1
20260906193519 31 0.0 1.6 0.00 0.00 0.00 37 1021.8
20260906192517 31 0.0 1.6 0.00 0.00 0.00 37 1022.1
20260906191517 31 0.0 4.8 0.00 0.00 0.00 39 1022.3
20260906190517 30 0.0 3.2 0.00 0.00 0.00 40 1022.1
20260906185517 30 0.0 0.0 0.00 0.00 0.00 41 1021.8
20260906184517 30 0.0 0.0 0.00 0.00 0.00 41 1022.1
20260906183537 30 0.0 0.0 0.00 0.00 0.00 37 1022.1
20260906182517 30 0.0 3.2 0.00 0.00 0.00 36 1022.3
20260906181537 30 0.0 0.0 0.00 0.00 0.00 39 1022.3
20260906180517 29 0.0 0.0 0.00 0.00 0.00 41 1022.4
20260906175517 29 0.0 0.0 0.00 0.00 0.00 39 1021.9
20260906174517 28 0.0 1.6 0.00 0.00 0.00 40 1022.2
20260906173517 28 0.0 0.0 0.00 0.00 0.00 43 1022.4
20260906172538 28 0.0 0.0 0.00 0.00 0.00 41 1022.5
20260906171517 28 0.0 0.0 0.00 0.00 0.00 39 1022.9
20260906170517 28 0.0 0.0 0.00 0.00 0.00 42 1023.0
20260906165517 27 0.0 3.2 0.00 0.00 0.00 43 1023.1
20260906164517 27 0.0 1.6 0.00 0.00 0.00 46 1023.2
20260906163517 26 0.0 0.0 0.00 0.00 0.00 44 1022.9
20260906162517 26 0.0 0.0 0.00 0.00 0.00 48 1023.3
20260906161517 25 0.0 0.0 0.00 0.00 0.00 49 1022.9
20260906160518 25 0.0 0.0 0.00 0.00 0.00 47 1022.9
20260906155517 24 0.0 0.0 0.00 0.00 0.00 49 1022.6
20260906154517 23 0.0 0.0 0.00 0.00 0.00 49 1022.0
20260906153517 23 0.0 0.0 0.00 0.00 0.00 50 1022.4
20260906152517 23 0.0 0.0 0.00 0.00 0.00 50 1021.9
20260906151517 22 0.0 1.6 0.00 0.00 0.00 52 1022.0
20260906150517 22 0.0 0.0 0.00 0.00 0.00 51 1021.9
20260906145517 21 0.0 1.6 0.00 0.00 0.00 52 1021.8
20260906144517 21 0.0 0.0 0.00 0.00 0.00 55 1021.9
20260906143517 21 0.0 1.6 0.00 0.00 0.00 57 1021.8
20260906142517 20 0.0 1.6 0.00 0.00 0.00 57 1021.6
20260906141517 19 0.0 0.0 0.00 0.00 0.00 61 1021.2
20260906140517 18 0.0 0.0 0.00 0.00 0.00 63 1021.1
20260906135537 18 0.0 0.0 0.00 0.00 0.00 67 1020.7
20260906134517 17 0.0 0.0 0.00 0.00 0.00 70 1020.2
20260906133517 16 0.0 0.0 0.00 0.00 0.00 72 1020.2
20260906132517 16 0.0 0.0 0.00 0.00 0.00 74 1020.1
20260906131537 16 0.0 0.0 0.00 0.00 0.00 76 1020.2
20260906130517 15 0.0 1.6 0.00 0.00 0.00 79 1020.0
20260906125517 15 0.0 1.6 0.00 0.00 0.00 81 1020.0
20260906124517 14 0.0 0.0 0.00 0.00 0.00 83 1019.9
20260906123517 13 0.0 1.6 0.00 0.00 0.00 83 1020.2
20260906122517 13 0.0 0.0 0.00 0.00 0.00 84 1020.0
20260906121517 13 0.0 0.0 0.00 0.00 0.00 84 1019.9
20260906120517 13 0.0 0.0 0.00 0.00 0.00 83 1019.9
20260906115517 14 0.0 0.0 0.00 0.00 0.00 83 1020.3
20260906114517 14 0.0 0.0 0.00 0.00 0.00 84 1020.8
20260906113517 14 0.0 0.0 0.00 0.00 0.00 84 1020.7
20260906112517 14 0.0 0.0 0.00 0.00 0.00 82 1020.9
20260906111517 15 0.0 0.0 0.00 0.00 0.00 81 1021.1
20260906110557 15 0.0 0.0 0.00 0.00 0.00 80 1021.1
20260906105537 15 0.0 0.0 0.00 0.00 0.00 78 1021.2
20260906104517 16 0.0 0.0 0.00 0.00 0.00 78 1021.5
20260906103517 16 0.0 0.0 0.00 0.00 0.00 78 1021.5
20260906102517 16 0.0 0.0 0.00 0.00 0.00 78 1021.5
20260906101537 16 0.0 0.0 0.00 0.00 0.00 78 1021.7
20260906100517 16 0.0 0.0 0.00 0.00 0.00 79 1021.3
20260906095516 16 0.0 0.0 0.00 0.00 0.00 79 1021.7
20260906094517 16 0.0 0.0 0.00 0.00 0.00 80 1021.8
20260906093517 16 0.0 0.0 0.00 0.00 0.00 79 1021.8
20260906092517 16 0.0 0.0 0.00 0.00 0.00 79 1021.8
20260906091517 16 0.0 0.0 0.00 0.00 0.00 78 1021.9
20260906090517 16 0.0 0.0 0.00 0.00 0.00 77 1022.4
20260906085537 17 0.0 0.0 0.00 0.00 0.00 74 1022.2
20260906084516 17 0.0 0.0 0.00 0.00 0.00 73 1022.1
20260906082537 18 0.0 0.0 0.00 0.00 0.00 69 1022.4
20260906081517 18 0.0 0.0 0.00 0.00 0.00 67 1022.7
20260906080516 19 0.0 0.0 0.00 0.00 0.00 65 1023.1
20260906075516 20 0.0 0.0 0.00 0.00 0.00 64 1023.2
20260906074517 20 0.0 0.0 0.00 0.00 0.00 64 1023.2
20260906073516 20 0.0 0.0 0.00 0.00 0.00 65 1022.9
20260906072516 20 0.0 0.0 0.00 0.00 0.00 65 1023.0
20260906071517 20 0.0 0.0 0.00 0.00 0.00 66 1023.1
20260906070517 19 0.0 0.0 0.00 0.00 0.00 67 1022.8
20260906065517 19 0.0 0.0 0.00 0.00 0.00 68 1022.7
20260906064517 19 0.0 0.0 0.00 0.00 0.00 68 1022.8
20260906063516 18 0.0 0.0 0.00 0.00 0.00 70 1022.7
20260906062516 18 0.0 0.0 0.00 0.00 0.00 71 1022.4
20260906061517 18 0.0 0.0 0.00 0.00 0.00 72 1021.8
20260906060517 18 0.0 0.0 0.00 0.00 0.00 73 1021.6
20260906055517 18 0.0 0.0 0.00 0.00 0.00 72 1021.2
20260906054516 18 0.0 0.0 0.00 0.00 0.00 72 1021.1
20260906053516 18 0.0 0.0 0.00 0.00 0.00 71 1021.2
20260906052516 18 0.0 0.0 0.00 0.00 0.00 70 1021.4
20260906051516 19 0.0 0.0 0.00 0.00 0.00 69 1021.3
20260906050516 19 0.0 0.0 0.00 0.00 0.00 68 1021.3
20260906045516 20 0.0 0.0 0.00 0.00 0.00 65 1021.6
20260906044516 20 0.0 0.0 0.00 0.00 0.00 65 1021.7
20260906043516 21 0.0 0.0 0.00 0.00 0.00 64 1021.8
20260906042516 21 0.0 0.0 0.00 0.00 0.00 64 1021.8
20260906041556 21 0.0 0.0 0.00 0.00 0.00 64 1021.2
20260906040516 21 0.0 0.0 0.00 0.00 0.00 65 1021.3
20260906035517 21 0.0 1.6 0.00 0.00 0.00 67 1020.9
20260906034516 21 0.0 0.0 0.00 0.00 0.00 67 1021.1
20260906033517 21 0.0 0.0 0.00 0.00 0.00 66 1021.0
20260906032536 22 0.0 0.0 0.00 0.00 0.00 64 1021.0
20260906031537 22 0.0 0.0 0.00 0.00 0.00 63 1020.8
20260906030517 22 0.0 0.0 0.00 0.00 0.00 62 1020.7
20260906025557 23 0.0 0.0 0.00 0.00 0.00 60 1020.6
20260906024517 23 0.0 0.0 0.00 0.00 0.00 59 1020.0
20260906023516 23 0.0 1.6 0.00 0.00 0.00 58 1020.1
20260906022517 24 0.0 1.6 0.00 0.00 0.00 56 1020.0
20260906021536 24 135 1.6 12.9 0.00 0.00 0.00 56 1019.7
20260906020516 25 0.0 3.2 0.00 0.00 0.00 55 1019.7
20260906015516 25 0.0 3.2 0.00 0.00 0.00 52 1018.8
20260906014556 25 0.0 0.0 0.00 0.00 0.00 48 1018.2
20260906013516 25 0.0 0.0 0.00 0.00 0.00 47 1017.9
20260906012516 25 0.0 0.0 0.00 0.00 0.00 46 1018.0
20260906011516 25 0.0 1.6 0.00 0.00 0.00 45 1018.3
20260906010516 25 0.0 1.6 0.00 0.00 0.00 44 1018.2
20260906005516 26 0.0 1.6 0.00 0.00 0.00 38 1018.1
20260906004516 27 0.0 0.0 0.00 0.00 0.00 36 1018.4
20260906003516 28 0.0 0.0 0.00 0.00 0.00 33 1018.8
20260906002516 28 0.0 0.0 0.00 0.00 0.00 31 1018.7
20260906001516 28 0.0 0.0 0.00 0.00 0.00 29 1018.5
20260906000536 29 0.0 0.0 0.00 0.00 0.00 29 1019.0
20260905235516 29 0.0 0.0 0.00 0.00 0.00 29 1019.0
20260905234516 30 0.0 0.0 0.00 0.00 0.00 30 1019.4
20260905233536 30 0.0 0.0 0.00 0.00 0.00 26 1018.8
20260905232516 30 0.0 0.0 0.00 0.00 0.00 26 1019.2
20260905231516 31 0.0 0.0 0.00 0.00 0.00 24 1019.1
20260905230516 31 0.0 0.0 0.00 0.00 0.00 24 1018.9
20260905225516 30 0.0 0.0 0.00 0.00 0.00 25 1018.9
20260905224516 30 0.0 0.0 0.00 0.00 0.00 25 1019.1
20260905223516 31 0.0 0.0 0.00 0.00 0.00 26 1019.2
20260905222516 31 0.0 0.0 0.00 0.00 0.00 27 1019.2
20260905221516 31 0.0 0.0 0.00 0.00 0.00 26 1019.6
20260905220516 31 0.0 0.0 0.00 0.00 0.00 26 1019.6
20260905215516 31 0.0 0.0 0.00 0.00 0.00 26 1019.6
20260905214516 31 0.0 0.0 0.00 0.00 0.00 28 1019.7
20260905213516 31 0.0 0.0 0.00 0.00 0.00 25 1019.7